Location: Dilsberg
(49.3983°N, 8.8354°E)
Time: 23:47:46
(UTC+00:00)

COBE Rocket - Pass Details

Date: 19 May 2025
Orbit: 676 x 772 km, 97.1° (Epoch: 15 June)

Event Time Altitude Azimuth Distance (km) Brightness Sun altitude
Rises 21:50:50 0° 12° (NNE) 3,229 8.2 -17.8°
Reaches altitude 10° 21:53:09 10° 13° (NNE) 2,309 7.3 -17.9°
Maximum altitude 21:58:16 86° 102° (ESE) 779 3.9 -18.2°
Enters shadow 22:00:58 29° 191° (S) 1,385 4.9 -18.4°
